Virtual Norwegian is not affiliated with Norwegian Air Shuttle in any way.
If you are looking for the real "Norwegian", or you wish to book Norwegian flights, please visit Norwegian.com


We use cookies to ensure you get the best experience on our website.   ACCEPT

ENEV - EVE - Harstad/Narvik (Evenes)

General Info Alternate Airport
ICAO: ENEV Elevation: 84 ft ICAO: ENDU
IATA: EVE Country: Norway IATA: BDU
City: Harstad/Narvik Charts: Log in to view charts City: Bardufoss
Name: Evenes Hub: No Name Bardufoss
General Info
ICAO: ENEV
IATA: EVE
City: Harstad/Narvik
Name: Evenes
Elevation: 84 ft
Country: Norway
Charts: Log in to view charts
Hub: No
 
Alternate Airport
ICAO: ENDU
IATA: BDU
City: Bardufoss
Name: Bardufoss

Weather
221650Z 00000KT 4000 -SN VV020 M04/M05 Q1005 RMK WIND 1400FT 00000KT
Weather
221650Z 00000KT 4000 -SN VV020 M04/M05 Q1005 RMK WIND 1400FT 00000KT

Runway Info
17
Length ILS/LOC Course
2808 m 108.90 172
35
Length ILS/LOC Heading
2808 m N/A 358

NOTAMs
NOTAMs currently unavailable.
NOTAMs
NOTAMs currently unavailable

Route map
Airport
Airport (hub)